Find Starlink 32379

NORAD ID: 61851 Int'l Des: 2024-202 Owner: SPXS Country: US Constellation: starlink operational
LEOCIRCULAR

現在のビュー

3D地球を読み込み中...

About Starlink 32379

Starlink 32379 (NORAD 61851) is a starlink constellation satellite (v2 mini) launched Nov 7, 2024 by SPXS of US. It operates in LEO, CIRCULAR orbit with a mass of 730.00 kg.

Starlink 32379について

説明を読み込み中...

次回通過

Passes for default location (London). Set your location on the main map for personalized predictions.

高度履歴

Loading altitude history...

軌道要素

1 61851U 24202G 26170.59303551 -.00000659 00000-0 -14434-4 0 9990
2 61851 43.0039 11.1428 0001089 275.9553 84.1174 15.27574255 91045
Epoch: Jun 19, 2026 • Age: 38 hours

現在のステータス

高度 485.7 km
速度 7.63 km/s
衛星直下点 38.05°N, 86.78°E
打ち上げ日 Nov 7, 2024
運用期間 1.6 years
タイプ internet

技術仕様

分類 Payload
質量 730.00 kg
乾燥質量 700.00 kg
総質量 730.00 kg
長さ 0.30 m
直径 4.10 m
スパン 29.00 m
形状 Box + pan
製造者 SPXS
バスタイプ Starlink V2M
フェーズステータス In Orbit
所有者/国 SPXS/US

Most Searched